sat.trackr.live / text

‹ back to catalog

ICEYE-X31

NORAD 58288 · 2023-174AJ

PAYLOAD ACTIVE UNKNOWN

§ Identity

Operator
Country
FIN
Launch date
2023-11-11
Launch site
AFWTR
Launch vehicle
Mass (kg)
RCS (m²)

External: N2YO · Heavens-Above · Gunter

§ Orbital elements

Epoch: 2026-05-25T04:10:05.140704Z

Period
93.91 min
Inclination
97.3787°
Eccentricity
0.0003248
Mean motion
15.33417978 rev/d
Perigee alt
463.4 km
Apogee alt
467.8 km
Semi-major
6,843.8 km
B*
5.0077e-4
RAAN
220.9354°
Arg perigee
75.0958°
Mean anomaly
285.0644°
Rev number
14,122

§ Raw data

ICEYE-X311 58288U 23174AJ  26145.17367061  .00016113  00000+0  50077-3 0  99902 58288  97.3787 220.9354 0003248  75.0958 285.0644 15.33417978141227

JSON: /api/v1/satellites/58288 · /tle

For live sub-satellite position, see the globe view (requires WebGL).

§ Visibility from observer

Set your observer location to see the next 7 days of passes ≥ 10°. The values pass through the URL so the page stays shareable.

No JS? Fill the form by hand. The geolocation button needs JavaScript.

§ Radio — SatNOGS DB

ModeDescriptionDownlinkUplink
FM S-band telemetry 2.246 GHz
BPSK S-band telemetry 2.264 GHz

2 transmitters · refreshed weekly from db.satnogs.org